Powrót do katalogu

STARLINK-3616

AktywnyŁącznośćVLEO
NORAD 51782·PAYLOAD·🇺🇸 United States

Wystrzelony Feb 25, 2022 z Vandenberg Space Force Base

Loading…

Następne Przeloty (najbliższe 24 godziny)

TLE

ŚwieżeSource: CelesTrak SupGP

Epoka: Sep 15, 2026, 02:46 UTC

1 51782C 22017Q   26258.11576389 -.00017247  00000+0 -50963-3 0  2584
2 51782  53.1581 203.2383 0001383  85.6536   0.8316 15.34395070    13

Śledź STARLINK-3616 w czasie rzeczywistym z AllMySat

Download on the App Store